Location: Newark
(46.1292°N, 1.0086°W)
Time: 14:19:55
(UTC+00:00)

Vanguard 3 - Pass Details

Date: 17 November 2019
Orbit: 508 x 3263 km, 33.3° (Epoch: 06 December)

Event Time Altitude Azimuth Distance (km) Brightness Sun altitude
Rises 14:46:31 0° 236° (WSW) 7,114 13.6 13.5°
Reaches altitude 10° 14:51:29 10° 232° (SW) 6,183 14.3 12.9°
Maximum altitude 15:09:44 47° 167° (SSE) 3,606 10.9 10.6°
Drops below altitude 10° 15:23:36 10° 100° (E) 4,807 10.7 8.8°
Sets 15:26:54 0° 94° (E) 5,487 10.9 8.4°
